Regional Weather Roundup
Issued by NWS

Home | Current Version | Previous Version | Text Only | Print | Product List | Glossary On
Versions: 1 2 3 4 5 6 7 8 9 10 11 12 13 14 15 16 17 18 19 20 21 22 23 24 25 26 27 28 29 30 31 32 33 34 35 36 37
000
ASUS43 KDMX 221607
RWRIA

WEATHER ROUNDUP FOR IOWA
NATIONAL WEATHER SERVICE DES MOINES IA
1100 AM CDT WED OCT 22 2014

NOTE: "FAIR" INDICATES FEW OR NO CLOUDS BELOW 12,000 FEET WITH NO
SIGNIFICANT WEATHER AND/OR OBSTRUCTIONS TO VISIBILITY.

* - THESE STATIONS ARE NOT NWS STATIONS...THUS NOT UNDER NWS
QUALITY CONTROL.  THEY ALSO DO NOT REPORT WEATHER SUCH
AS PRECIPITATION OR FOG.

IAZ001>003-012>014-020>022-031>034-043>046-221700-
   NORTHWEST IOWA

CITY           SKY/WX    TMP DP  RH WIND       PRES   REMARKS
CARROLL *      SUNNY     57  43  58 SE13G21   30.14F
CHEROKEE *     SUNNY     61  45  55 S13G20    30.08F
DENISON *      SUNNY     61  45  55 S14G23    30.09F
LE MARS *      PTSUNNY   64  48  55 S20G25    30.04F
ORANGE CITY *  SUNNY     63  46  55 S21G26    30.04S
SHELDON *      SUNNY     59  45  58 S22G30    30.04S
SIOUX CITY     SUNNY     63  47  55 S17G24    30.06S
SPENCER        SUNNY     57  43  59 SE20G29   30.10F
STORM LAKE *   SUNNY     59  45  58 S23G30    30.10F
$$

IAZ055>058-069>071-079>083-090>094-221700-
   SOUTHWEST IOWA

CITY           SKY/WX    TMP DP  RH WIND       PRES   REMARKS
ATLANTIC *     SUNNY     59  45  58 S16       30.14S
AUDUBON *      SUNNY     59  43  55 S15       30.15F
CLARINDA *     MOSUNNY   59  45  58 SE12      30.18F
COUNCIL BLFS * SUNNY     61  48  63 S17       30.10S
CRESTON *      CLOUDY    55  45  67 S13G21    30.19F
HARLAN  *      SUNNY     61  46  59 S14G22    30.16S
LAMONI         CLOUDY    54  43  66 SE13      30.22F
RED OAK *      SUNNY     61  46  59 SE16G25   30.14F
SHENANDOAH *   SUNNY     63  48  59 SE12G18   30.14F
$$

IAZ047>049-059>061-072>074-084-221700-
   CENTRAL IOWA

CITY           SKY/WX    TMP DP  RH WIND       PRES   REMARKS
AMES           CLOUDY    50  42  74 SE10      30.22S
ANKENY *       CLOUDY    52  43  71 SE12G20   30.22F
CHARITON *     PTSUNNY   55  43  62 SE15      30.23F
DES MOINES     CLOUDY    54  42  64 SE18      30.22F
GRINNELL*      SUNNY     50  43  76 SE16      30.27S
KNOXVILLE *    PTSUNNY   54  43  66 SE15G21   30.24S
MARSHALLTOWN   SUNNY     51  41  68 S17       30.25S
PELLA *        SUNNY     54  43  66 SE12G17   30.27F
PERRY *        CLOUDY    54  43  66 SE13      30.20S
$$

IAZ004>006-015-016-023>025-035-036-221700-
   NORTH CENTRAL IOWA

CITY           SKY/WX    TMP DP  RH WIND       PRES   REMARKS
ALGONA *       CLOUDY    52  41  66 S20G28    30.15F
CLARION *      PTSUNNY   52  41  66 S18G29    30.20S
ESTHERVILLE    SUNNY     54  42  64 S23       30.11F
FORT DODGE *   CLOUDY    52  39  62 SE9       30.18F
FOREST CITY *  CLOUDY    50  43  76 SE20      30.19F
IOWA FALLS *   PTSUNNY   50  41  71 SE13      30.24S
$$

IAZ007>011-017>019-026>030-037>042-050>054-066-221700-
   NORTHEAST IOWA

CITY           SKY/WX    TMP DP  RH WIND       PRES   REMARKS
CEDAR RAPIDS   SUNNY     50  41  71 S12       30.30F
CHARLES CITY * MOSUNNY   50  39  66 SE14G24   30.26S
CLINTON *      SUNNY     50  39  66 SE14G20   30.36F
DECORAH *      SUNNY     48  37  66 S10G16    30.29S
DUBUQUE        SUNNY     48  40  73 S13       30.33S
MONTICELLO *   SUNNY     50  41  71 SE12G18   30.32S
OELWEIN *      SUNNY     50  41  71 S16       30.29F
WATERLOO       SUNNY     50  41  71 SE18      30.27F
$$

IAZ064-065-067-068-078-221700-
   EAST CENTRAL IOWA

CITY           SKY/WX    TMP DP  RH WIND       PRES   REMARKS
DAVENPORT      SUNNY     50  38  63 SE10      30.34F
IOWA CITY      SUNNY     50  42  74 SE12      30.33S
MT. PLEASANT * SUNNY     54  41  62 SE9       30.31F
MUSCATINE *    SUNNY     52  39  62 S12       30.33S
QUAD CITIES    SUNNY     52  41  66 SE12      30.33F
$$

IAZ062-063-075>077-085>089-095>099-221700-
   SOUTHEAST IOWA

CITY           SKY/WX    TMP DP  RH WIND       PRES   REMARKS
BURLINGTON     SUNNY     52  42  69 SE10      30.32F
FAIRFIELD *    SUNNY     52  41  66 SE14      30.29F
FORT MADISON * SUNNY     54  45  71 SE8       30.32F
KEOKUK *       SUNNY     54  43  66 SE9       30.31F
OSKALOOSA *      N/A     52  41  66 S13       30.29S
CENTERVILLE *  SUNNY     54  43  66 SE10      30.28S
WASHINGTON *   SUNNY     52  43  71 S13       30.31S
$$

ABBREVIATIONS USED IN REMARKS
   TC - TEMPERATURES IN CELSIUS
  WCI - WIND CHILL INDEX
   HX - HEAT INDEX
  VSB - VISIBILITY
$$




USA.gov is the U.S. government's official web portal to all federal, state and local government web resources and services.